Other Public Products
Issued by NWS Charleston, SC

Current Version | Previous Version | Text Only | Print | Product List | Glossary Off
Versions: 1 2 3 4 5 6 7 8 9 10 11 12 13 14 15 16 17 18 19 20 21 22 23 24 25 26 27 28 29 30 31 32 33 34 35 36 37 38 39 40 41 42 43 44 45 46 47 48 49 50

497
FPUS82 KCHS 260027
OPUCHS

TEST...KCHS/KSAV Gateway Observations...TEST
National Weather Service Charleston SC
800 PM EDT MON SEP 25 2017

NOTE: "fair" indicates few or no clouds below 12,000 feet with no
significant weather and/or obstructions to visibility.

SCZ050-WAZ558-NCZ071-TXZ119-213-PAZ071-DCZ001-FLZ074-172-MI076-
NYZ176-178-MAZ016-IL014-TNZ027-NJZ106-GAZ044-MD014-260100-

...Gateway Observations for Charleston International...

CITY           SKY/WX    TMP DP  RH WIND       PRES   REMARKS
Chas Airport   PTCLDY    77  69  76 N8        29.87R
6HR MIN TEMP:  77; 6HR MAX TEMP:  84;

Seattle        CLOUDY    64  54  69 S5        30.11F
6HR MIN TEMP:  59; 6HR MAX TEMP:  65; 6HR PCP: TRACE;

Charlotte      MOCLDY    75  65  70 N7        29.94S
6HR MIN TEMP:  75; 6HR MAX TEMP:  86;

Dallas DFW     PTCLDY    89  60  37 SE12      29.79S
6HR MIN TEMP:  87; 6HR MAX TEMP:  93;

Dallas Love    PTCLDY    89  62  40 SE17      29.80R
6HR MIN TEMP:  86; 6HR MAX TEMP:  93;

Philladelphia  MOCLDY    78  65  63 SE8       30.02R
6HR MIN TEMP:  78; 6HR MAX TEMP:  91;

Wash National  MOCLDY    82  69  64 E6        29.99S
6HR MIN TEMP:  82; 6HR MAX TEMP:  91;

Baltimore      MOCLDY    80  68  66 SE6       29.98S
6HR MIN TEMP:  79; 6HR MAX TEMP:  89;

Miami          MOCLDY    85  75  72 SW9       29.85S HX  93
6HR MIN TEMP:  84; 6HR MAX TEMP:  90;

Detroit        MOCLDY    80  63  55 SE5       29.98F
6HR MIN TEMP:  80; 6HR MAX TEMP:  90;

Newark         PTCLDY    74  64  71 SE6       30.04R
6HR MIN TEMP:  74; 6HR MAX TEMP:  90;

Laguardia      CLEAR     76  64  66 S9        30.03R
6HR MIN TEMP:  76; 6HR MAX TEMP:  86;

J F K          PTCLDY    70  67  90 SE10      30.06R
6HR MIN TEMP:  70; 6HR MAX TEMP:  84;

Boston Logan   PTCLDY    68  66  93 E6        30.06R
6HR MIN TEMP:  68; 6HR MAX TEMP:  77;

Ft. Lauderdale MOCLDY    83  77  82 SW5       29.84R HX  92
6HR MIN TEMP:  83; 6HR MAX TEMP:  93;

Chicago O`Hare PTCLDY    85  51  31 SE12      29.92R
6HR MIN TEMP:  85; 6HR MAX TEMP:  92;

Chicago Midway PTCLDY    85  56  37 E7        29.93R
6HR MIN TEMP:  85; 6HR MAX TEMP:  92;

Houston Bush   MOCLDY    83  72  69 SE13      29.82R
6HR MIN TEMP:  83; 6HR MAX TEMP:  91;

Houston Hobby  MOCLDY    84  71  65 SE9       29.81R
6HR MIN TEMP:  84; 6HR MAX TEMP:  91;

Nashville      PTCLDY    83  65  54 NE5       29.94S
6HR MIN TEMP:  83; 6HR MAX TEMP:  91;

Atlanta        CLEAR     81  59  47 E7        29.95R
6HR MIN TEMP:  80; 6HR MAX TEMP:  86;


$$

GAZ044-118-TXZ119-213-NCZ071-DCZ001-MDZ014-506-PAZ021-071-NJZ106-
NYZ176-178-MAZ106-OHZ011-021-055-MIZ076-KYZ091-ILZ014-INZ047-
MNZ060-ONZ431-260100-

...Gateway Observations for Savannah International...

CITY           SKY/WX    TMP DP  RH WIND       PRES   REMARKS
Savannah Arpt  PTCLDY    79  68  69 NE7       29.87R
6HR MIN TEMP:  79; 6HR MAX TEMP:  89;

Atlanta        CLEAR     81  59  47 E7        29.95R
6HR MIN TEMP:  80; 6HR MAX TEMP:  86;

Charlotte      MOCLDY    75  65  70 N7        29.94S
6HR MIN TEMP:  75; 6HR MAX TEMP:  86;

Dallas DFW     PTCLDY    89  60  37 SE12      29.79S
6HR MIN TEMP:  87; 6HR MAX TEMP:  93;

Houston Bush   MOCLDY    83  72  69 SE13      29.82R
6HR MIN TEMP:  83; 6HR MAX TEMP:  91;

Wash National  MOCLDY    82  69  64 E6        29.99S
6HR MIN TEMP:  82; 6HR MAX TEMP:  91;

Wash Dulles    MOCLDY    78  68  71 E6        29.99S
6HR MIN TEMP:  78; 6HR MAX TEMP:  89;

Baltimore      MOCLDY    80  68  66 SE6       29.98S
6HR MIN TEMP:  79; 6HR MAX TEMP:  89;

Philadelphia   MOCLDY    78  65  63 SE8       30.02R
6HR MIN TEMP:  78; 6HR MAX TEMP:  91;

Newark         PTCLDY    74  64  71 SE6       30.04R
6HR MIN TEMP:  74; 6HR MAX TEMP:  90;

Laguardia      CLEAR     76  64  66 S9        30.03R
6HR MIN TEMP:  76; 6HR MAX TEMP:  86;

J F K          PTCLDY    70  67  90 SE10      30.06R
6HR MIN TEMP:  70; 6HR MAX TEMP:  84;

Boston         PTCLDY    68  66  93 E6        30.06R
6HR MIN TEMP:  68; 6HR MAX TEMP:  77;

Pittsburg      MOCLDY    80  63  55 CALM      30.03S
6HR MIN TEMP:  80; 6HR MAX TEMP:  89;

Akron          MOCLDY    80  59  48 SE5       30.03R
6HR MIN TEMP:  80; 6HR MAX TEMP:  90;

Cleveland      MOCLDY    81  63  54 N6        30.01S
6HR MIN TEMP:  81; 6HR MAX TEMP:  94;

Cincinnati     MOCLDY    78  66  66 S3        29.98S
6HR MIN TEMP:  78; 6HR MAX TEMP:  89;

Columbus       CLEAR     76  64  65 S6        29.99R
Detroit        MOCLDY    80  63  55 SE5       29.98F
6HR MIN TEMP:  80; 6HR MAX TEMP:  90;

Chicago O`Hare PTCLDY    85  51  31 SE12      29.92R
6HR MIN TEMP:  85; 6HR MAX TEMP:  92;

Minneapolis    LGT RAIN  60  57  89 N10G23    29.97F
6HR MIN TEMP:  60; 6HR MAX TEMP:  63; 6HR PCP: TRACE;

Indianapolis   PTCLDY    83  59  44 SE5       29.95F
6HR MIN TEMP:  83; 6HR MAX TEMP:  91;

Toronto Canada MOCLDY    79  64  61 SE6       30.00F

$$




USA.gov is the U.S. government's official web portal to all federal, state and local government web resources and services.